Snowfall_Accumulation
0.0 0.4 0.7 0.0 0.0 0.0 0.0 0.0 0.0 0.0 0.0 0.0 0.0 0.0 0.0 0.0 0.0 0.0 0.0 0.0 0.0 0.0 0.0 0.0 0.0 0.0 0.0 0.0 0.0 0.0 0.0 0.0 0.0 0.0 0.0 0.0 0.0 0.0 0.0 0.0 0.0 0.0 0.0 0.0
0.3 0.4 0.0 0.0 0.0 0.0 0.0 0.1 0.2 0.0 0.0 0.0 0.0 0.0 0.0 0.0 0.0 0.0 0.0 0.0 0.0 0.0 0.0 0.0 0.0 0.0 0.0 0.0 0.0 0.0 0.0 0.0 0.0 0.0 0.0 0.0 0.0 0.0 0.0 0.0 0.0 0.0 0.0 0.0
0.1 0.0 0.0 0.0 0.0 0.0 0.0 0.1 0.0 0.0 0.0 0.0 0.0 0.1 0.0 0.0 0.0 0.0 0.0 0.0 0.0 0.0 0.0 0.0 0.0 0.0 0.0 0.0 0.0 0.0 0.0 0.0 0.0 0.0 0.0 0.0 0.0 0.0 0.0 0.0 0.0 0.0 0.0 0.0
0.1 0.0 0.0 0.0 0.0 0.0 0.2 0.0 0.0 0.0 1.9 2.6 0.0 2.5 0.0 0.0 0.0 0.0 0.0 0.0 0.0 0.0 0.0 0.0 0.0 0.0 0.0 0.0 0.0 0.0 0.0 0.0 0.0 0.0 0.0 0.0 0.0 0.0 0.0 0.0 0.0 0.0 0.0 0.0
0.1 0.0 0.0 0.1 0.0 0.0 0.2 0.0 0.0 0.0 1.5 0.7 0.2 2.5 0.0 0.0 0.0 0.0 0.0 0.0 0.0 0.0 0.0 0.0 0.0 0.0 0.0 0.0 0.0 0.0 0.0 0.0 0.0 0.0 0.0 0.0 0.0 0.0 0.0 0.0 0.0 0.0 0.0 0.0
0.1 0.0 0.0 0.0 0.0 0.0 0.0 0.3 0.0 0.2 1.3 8.4 1.6 1.0 0.3 0.0 0.0 0.0 0.0 0.0 0.0 0.0 0.0 0.0 0.0 0.0 0.0 0.0 0.0 0.0 0.0 0.0 0.0 0.0 0.0 0.0 0.0 0.0 0.0 0.0 0.0 0.0 0.0 0.0
0.0 0.0 0.0 0.0 0.0 0.0 0.0 1.6 9.4 8.3 12.9 3.6 2.2 0.5 0.3 0.0 0.0 0.0 0.0 0.0 0.0 0.0 0.0 0.0 0.0 0.0 0.0 0.0 0.0 0.0 0.0 0.0 0.0 0.0 0.0 0.0 0.0 0.0 0.0 0.0 0.0 0.0 0.0 0.0
3.8 4.7 0.6 0.0 0.0 0.5 0.1 2.6 4.0 7.9 5.6 1.5 4.1 6.8 0.4 0.0 0.0 0.0 0.0 0.0 0.0 0.0 0.0 0.0 0.0 0.0 0.0 0.0 0.0 0.0 0.0 0.0 0.0 0.0 0.0 0.0 0.0 0.0 0.0 0.0 0.0 0.0 0.0 0.0
1.8 1.3 0.0 0.0 0.0 0.0 0.5 3.9 0.0 7.6 4.6 8.1 1.3 0.4 0.1 0.0 0.4 0.0 0.0 0.0 0.0 0.0 0.0 0.0 0.0 0.0 0.0 0.0 0.0 0.0 0.0 0.0 0.0 0.0 0.0 0.0 0.0 0.0 0.0 0.0 0.0 0.0 0.0 0.0
0.1 3.5 2.1 0.1 0.0 0.1 0.6 0.0 5.5 4.6 13.7 9.6 4.2 5.7 0.9 3.2 4.4 0.8 0.1 0.2 0.1 0.0 0.0 0.0 0.0 0.0 0.0 0.0 0.0 0.0 0.0 0.0 0.0 0.0 0.0 0.0 0.0 0.0 0.0 0.0 0.0 0.0 0.0 0.0
0.2 4.0 2.6 0.1 2.7 2.3 1.6 3.6 2.6 2.0 1.9 5.5 4.7 1.8 4.5 5.5 5.0 4.7 3.1 0.1 3.7 1.5 0.1 0.1 0.0 0.0 0.0 0.0 0.0 0.0 0.0 0.0 0.0 0.0 0.0 0.0 0.0 0.0 0.0 0.0 0.0 0.0 0.0 0.0
0.0 0.2 6.9 2.5 0.0 0.0 0.1 1.0 0.1 3.0 4.5 1.9 2.4 4.8 2.3 6.5 7.2 6.0 4.5 1.7 0.5 2.2 0.7 0.7 0.1 0.0 0.0 0.0 0.0 0.0 0.0 0.0 0.0 0.0 0.0 0.0 0.0 0.0 0.0 0.0 0.0 0.0 0.0 0.0
0.0 5.4 9.5 3.1 2.6 0.0 0.8 0.1 0.1 1.3 0.3 4.1 6.9 3.1 4.1 4.1 5.6 5.7 6.9 3.5 2.8 3.0 2.0 1.2 0.2 0.1 0.0 0.0 0.0 0.0 0.0 0.0 0.0 0.0 0.0 0.0 0.0 0.0 0.0 0.0 0.0 0.0 0.0 0.0
nan 0.1 5.4 3.6 4.1 3.1 2.7 1.3 0.7 1.7 13.3 1.7 5.9 3.8 4.2 5.1 6.8 6.4 6.9 6.0 6.6 5.9 5.4 3.2 2.6 1.6 0.3 1.0 0.4 0.1 0.1 0.0 0.0 0.0 0.0 0.0 0.0 0.0 0.0 0.0 0.0 0.0 0.0 0.0
0.1 12.2 0.1 1.0 1.2 1.6 2.3 3.9 1.7 6.7 5.8 12.1 7.2 6.3 9.3 8.7 10.1 11.0 9.2 7.7 7.8 8.0 6.6 6.4 5.8 3.7 3.1 2.8 1.9 1.1 1.0 0.6 0.4 0.3 1.5 0.6 0.1 0.1 0.1 0.1 0.1 0.1 0.1 0.1
0.0 12.8 2.6 6.9 0.1 0.1 2.1 0.1 0.5 3.3 2.9 5.2 1.7 9.3 10.4 8.7 6.0 9.6 11.0 9.8 9.4 9.5 8.7 8.8 8.0 6.7 6.0 5.3 4.4 2.9 3.7 3.4 2.5 2.5 3.3 3.1 1.8 1.2 1.6 0.3 0.3 0.3 0.4 0.3
1.5 7.6 14.1 21.3 0.7 1.6 12.8 4.0 1.6 2.1 3.1 1.9 9.9 11.5 5.7 5.8 5.6 10.1 10.1 10.3 11.4 11.0 10.9 11.4 11.0 11.8 10.9 10.7 7.9 7.4 6.5 6.1 6.5 5.8 5.6 4.4 4.6 3.1 3.7 2.2 1.0 1.3 0.4 0.4
8.7 8.5 9.9 23.6 12.0 44.9 3.7 0.0 0.3 3.5 1.1 3.5 3.7 4.9 4.1 6.9 6.3 5.0 6.6 7.0 8.2 8.4 8.3 8.9 9.9 9.4 11.5 9.2 9.6 9.8 9.9 9.8 9.8 9.6 7.7 7.5 6.8 6.0 5.2 2.8 2.5 2.7 1.6 2.7
0.1 4.1 26.6 38.9 20.9 3.2 0.0 0.0 0.0 0.0 0.2 0.0 0.3 0.9 0.5 1.3 0.1 0.1 0.1 0.3 1.6 1.6 3.8 5.4 5.4 6.6 6.4 4.9 7.6 10.2 8.6 9.0 5.7 8.7 8.2 8.2 7.2 6.5 5.4 4.2 3.8 3.5 3.7 2.7
1.9 2.3 8.7 29.0 29.2 22.0 0.0 0.0 0.0 0.0 0.7 0.0 0.0 0.0 0.0 0.0 0.5 0.0 0.0 0.0 0.0 0.0 0.0 0.0 0.0 0.0 0.0 0.0 0.0 1.7 3.7 4.7 2.7 4.0 6.9 5.8 5.6 6.0 5.3 4.6 4.2 4.8 3.9 4.5
16.9 24.7 31.8 20.3 25.9 7.9 0.0 0.0 0.1 4.5 0.1 0.0 0.0 0.0 0.1 0.4 0.1 0.0 0.0 0.0 0.0 0.0 0.0 0.0 0.0 0.0 0.0 0.0 0.0 0.1 0.3 1.7 0.4 0.6 2.3 3.4 3.5 4.4 5.0 4.8 4.9 5.6 5.8 4.3
4.5 13.6 27.1 21.6 32.3 33.2 0.1 0.2 1.0 0.2 0.0 0.0 0.0 0.0 0.0 0.0 0.0 0.0 0.0 0.0 0.0 0.0 0.0 0.0 0.0 0.0 0.0 0.0 0.1 0.2 0.3 0.2 0.5 1.1 1.5 1.6 2.0 1.5 2.1 3.5 2.9 3.5 2.9 3.2
6.7 1.1 5.7 2.6 3.4 0.2 0.2 0.1 0.0 0.0 0.1 0.0 0.0 0.0 0.0 0.0 0.1 0.0 0.0 0.1 0.1 0.1 0.1 0.2 0.2 0.4 0.2 0.2 0.3 0.9 0.4 0.6 1.7 2.7 3.6 3.3 2.6 1.6 1.1 2.4 1.4 2.4 1.7 3.0
0.3 0.1 2.1 2.8 0.5 0.1 0.1 0.1 0.0 0.0 0.1 0.0 0.0 0.0 0.0 0.2 0.3 1.1 1.3 1.1 1.0 1.3 2.2 2.3 3.0 2.4 1.6 1.3 1.7 2.3 2.8 3.1 6.4 5.1 3.2 2.4 2.6 1.8 2.3 2.6 2.5 3.3 2.9 3.1
1.1 1.4 2.8 3.5 1.4 1.9 0.6 0.1 0.1 0.1 0.2 0.4 0.4 0.4 0.2 0.2 0.4 0.3 0.8 1.0 1.3 1.8 3.0 3.5 3.6 3.2 3.1 2.5 2.8 4.0 4.0 3.7 3.2 3.2 2.5 2.5 3.1 2.9 2.2 1.9 2.6 2.8 1.2 3.2
0.8 0.4 1.7 0.9 0.0 0.1 0.1 0.6 0.8 1.4 1.7 1.0 1.3 1.6 1.5 1.3 0.7 0.6 1.0 1.0 1.4 1.7 1.6 2.2 1.7 1.8 1.6 2.0 2.5 3.0 2.7 2.0 2.9 2.6 3.5 3.0 3.3 2.9 2.8 2.8 2.6 nan nan nan
Water_Equivalent
0.00 0.13 0.21 0.00 0.00 0.00 0.00 0.00 0.00 0.00 0.00 0.00 0.00 0.00 0.00 0.00 0.00 0.00 0.00 0.00 0.00 0.00 0.00 0.00 0.00 0.00 0.00 0.00 0.00 0.00 0.00 0.00 0.00 0.00 0.00 0.00 0.00 0.00 0.00 0.00 0.00 0.00 0.00 0.00
0.10 0.12 0.00 0.00 0.00 0.00 0.00 0.02 0.06 0.00 0.00 0.00 0.00 0.00 0.00 0.00 0.00 0.00 0.00 0.00 0.00 0.00 0.00 0.00 0.00 0.00 0.00 0.00 0.00 0.00 0.00 0.00 0.00 0.00 0.00 0.00 0.00 0.00 0.00 0.00 0.00 0.00 0.00 0.00
0.03 0.00 0.00 0.00 0.00 0.00 0.00 0.03 0.02 0.00 0.00 0.00 0.00 0.04 0.00 0.00 0.00 0.00 0.00 0.00 0.00 0.00 0.00 0.00 0.00 0.00 0.00 0.00 0.00 0.00 0.00 0.00 0.00 0.00 0.00 0.00 0.00 0.00 0.00 0.00 0.00 0.00 0.00 0.00
0.04 0.00 0.00 0.00 0.00 0.00 0.04 0.00 0.00 0.01 0.45 0.60 0.01 0.46 0.00 0.00 0.00 0.00 0.00 0.00 0.00 0.00 0.00 0.00 0.00 0.00 0.00 0.00 0.00 0.00 0.00 0.00 0.00 0.00 0.00 0.00 0.00 0.00 0.00 0.00 0.00 0.00 0.00 0.00
0.03 0.00 0.00 0.04 0.00 0.00 0.06 0.00 0.00 0.01 0.41 0.16 0.05 0.47 0.00 0.00 0.00 0.00 0.00 0.00 0.00 0.00 0.00 0.00 0.00 0.00 0.00 0.00 0.00 0.00 0.00 0.00 0.00 0.00 0.00 0.00 0.00 0.00 0.00 0.00 0.00 0.00 0.00 0.00
0.03 0.00 0.00 0.00 0.00 0.00 0.00 0.09 0.00 0.07 0.34 1.44 0.33 0.22 0.08 0.00 0.00 0.00 0.00 0.00 0.00 0.00 0.00 0.00 0.00 0.00 0.00 0.00 0.00 0.00 0.00 0.00 0.00 0.00 0.00 0.00 0.00 0.00 0.00 0.00 0.00 0.00 0.00 0.00
0.01 0.01 0.00 0.00 0.00 0.00 0.01 0.42 1.90 1.60 2.39 0.70 0.38 0.12 0.08 0.00 0.00 0.00 0.00 0.00 0.00 0.00 0.00 0.00 0.00 0.00 0.00 0.00 0.00 0.00 0.00 0.00 0.00 0.00 0.00 0.00 0.00 0.00 0.00 0.00 0.00 0.00 0.00 0.00
0.89 1.08 0.18 0.00 0.01 0.12 0.03 0.58 0.76 1.14 0.92 0.29 0.60 0.80 0.10 0.00 0.00 0.00 0.00 0.00 0.00 0.00 0.00 0.00 0.00 0.00 0.00 0.00 0.00 0.00 0.00 0.00 0.00 0.00 0.00 0.00 0.00 0.00 0.00 0.00 0.00 0.00 0.00 0.00
0.41 0.33 0.00 0.00 0.00 0.00 0.12 0.86 0.01 0.95 0.73 1.05 0.26 0.08 0.02 0.01 0.11 0.00 0.00 0.00 0.00 0.00 0.00 0.00 0.00 0.00 0.00 0.00 0.00 0.00 0.00 0.00 0.00 0.00 0.00 0.00 0.00 0.00 0.00 0.00 0.00 0.00 0.00 0.00
0.04 0.68 0.59 0.04 0.01 0.02 0.16 0.01 1.05 0.97 1.89 1.14 0.63 0.64 0.18 0.52 0.87 0.23 0.02 0.06 0.03 0.01 0.01 0.00 0.00 0.00 0.00 0.00 0.00 0.00 0.00 0.00 0.00 0.00 0.00 0.00 0.00 0.00 0.00 0.00 0.00 0.00 0.00 0.00
0.05 0.85 0.63 0.01 0.59 0.52 0.39 0.84 0.55 0.43 0.43 0.78 0.59 0.30 0.95 0.99 0.88 0.80 0.62 0.03 0.74 0.35 0.03 0.02 0.01 0.00 0.00 0.00 0.00 0.00 0.00 0.00 0.00 0.00 0.00 0.00 0.00 0.00 0.00 0.00 0.00 0.00 0.00 0.00
0.00 0.06 1.31 0.56 0.00 0.00 0.03 0.22 0.03 0.55 0.64 0.36 0.37 0.50 0.53 1.17 1.25 1.01 0.80 0.39 0.12 0.50 0.17 0.18 0.02 0.01 0.00 0.00 0.00 0.00 0.00 0.00 0.00 0.00 0.00 0.00 0.00 0.00 0.00 0.00 0.00 0.00 0.00 0.00
0.00 1.46 1.90 0.64 0.45 0.01 0.18 0.02 0.03 0.26 0.06 0.51 1.00 0.37 0.79 0.78 0.92 1.14 1.20 0.78 0.67 0.72 0.51 0.38 0.05 0.03 0.01 0.00 0.00 0.00 0.00 0.00 0.00 0.00 0.00 0.00 0.00 0.00 0.00 0.00 0.00 0.00 0.00 0.00
nan 0.03 0.90 0.63 0.70 0.59 0.36 0.18 0.14 0.30 2.28 0.28 0.62 0.47 0.52 0.72 0.99 1.04 1.16 1.10 1.30 1.18 1.08 0.79 0.68 0.44 0.08 0.27 0.11 0.03 0.02 0.01 0.01 0.01 0.01 0.00 0.01 0.00 0.00 0.00 0.00 0.00 0.00 0.00
0.03 2.50 0.02 0.18 0.22 0.25 0.42 0.52 0.24 0.89 0.86 1.84 0.84 0.66 1.17 1.32 1.45 1.70 1.58 1.40 1.36 1.43 1.27 1.32 1.26 0.86 0.69 0.65 0.46 0.27 0.25 0.16 0.09 0.07 0.36 0.14 0.04 0.02 0.02 0.02 0.01 0.01 0.02 0.02
0.00 3.14 0.40 1.24 0.02 0.02 0.36 0.03 0.08 0.59 0.44 0.72 0.23 1.06 1.56 1.52 1.03 1.40 1.68 1.54 1.43 1.52 1.56 1.62 1.58 1.28 1.02 1.00 0.88 0.58 0.73 0.75 0.63 0.52 0.68 0.76 0.41 0.29 0.37 0.11 0.07 0.06 0.06 0.06
0.37 1.67 2.89 4.07 0.12 0.26 2.20 0.43 0.17 0.26 0.39 0.26 1.29 1.64 0.94 0.78 0.78 1.46 1.49 1.51 1.65 1.71 1.68 1.78 1.70 1.74 1.66 1.77 1.30 1.18 1.11 1.15 1.28 1.18 1.19 0.91 0.90 0.59 0.68 0.48 0.22 0.33 0.09 0.10
2.22 2.25 2.19 4.71 2.50 7.77 0.60 0.01 0.06 0.43 0.14 0.45 0.51 0.68 0.65 1.00 0.98 0.79 1.05 1.01 1.16 1.22 1.18 1.27 1.39 1.22 1.53 1.31 1.29 1.34 1.35 1.42 1.51 1.57 1.17 1.29 1.21 1.07 1.04 0.57 0.47 0.55 0.35 0.59
0.02 0.93 4.97 7.58 3.77 0.52 0.01 0.00 0.00 0.00 0.03 0.00 0.05 0.15 0.11 0.25 0.03 0.01 0.03 0.06 0.24 0.25 0.54 0.73 0.69 0.83 0.80 0.59 0.96 1.29 1.04 1.12 0.75 1.20 1.11 1.14 1.12 1.03 0.86 0.70 0.67 0.68 0.73 0.55
0.22 0.31 1.53 5.80 5.31 3.34 0.00 0.00 0.00 0.00 0.14 0.00 0.00 0.00 0.00 0.01 0.09 0.00 0.00 0.00 0.00 0.01 0.00 0.00 0.00 0.01 0.00 0.00 0.00 0.21 0.39 0.51 0.29 0.48 0.88 0.79 0.78 0.89 0.75 0.74 0.66 0.87 0.77 0.86
3.10 4.87 5.67 3.60 4.83 1.52 0.00 0.00 0.01 0.74 0.02 0.00 0.00 0.00 0.02 0.06 0.01 0.00 0.00 0.00 0.00 0.00 0.00 0.00 0.00 0.00 0.00 0.00 0.00 0.01 0.04 0.16 0.06 0.08 0.32 0.45 0.49 0.63 0.72 0.74 0.78 0.82 0.85 0.66
0.64 2.16 4.71 3.59 5.45 5.30 0.01 0.03 0.11 0.05 0.01 0.00 0.00 0.00 0.00 0.00 0.00 0.00 0.00 0.00 0.00 0.00 0.00 0.00 0.00 0.00 0.00 0.01 0.01 0.02 0.04 0.03 0.06 0.14 0.18 0.21 0.28 0.22 0.32 0.54 0.43 0.57 0.45 0.49
1.05 0.20 1.07 0.33 0.56 0.04 0.03 0.01 0.00 0.00 0.01 0.00 0.00 0.00 0.00 0.01 0.01 0.01 0.01 0.01 0.01 0.01 0.01 0.02 0.03 0.05 0.03 0.04 0.03 0.10 0.05 0.07 0.18 0.34 0.55 0.55 0.45 0.28 0.20 0.45 0.23 0.56 0.31 0.64
0.05 0.02 0.32 0.35 0.08 0.02 0.01 0.01 0.01 0.01 0.01 0.01 0.00 0.01 0.01 0.04 0.06 0.13 0.14 0.13 0.11 0.13 0.19 0.21 0.26 0.20 0.13 0.12 0.16 0.23 0.25 0.29 0.89 0.72 0.37 0.29 0.35 0.27 0.31 0.52 0.57 0.79 0.65 0.61
0.17 0.18 0.31 0.36 0.15 0.23 0.07 0.03 0.02 0.03 0.04 0.06 0.06 0.06 0.03 0.03 0.05 0.04 0.08 0.10 0.13 0.17 0.27 0.30 0.34 0.30 0.28 0.24 0.25 0.41 0.37 0.35 0.35 0.37 0.25 0.29 0.45 0.41 0.30 0.29 0.47 0.43 0.17 0.54
0.09 0.04 0.22 0.15 0.00 0.01 0.02 0.10 0.12 0.13 0.15 0.11 0.12 0.14 0.15 0.12 0.07 0.06 0.09 0.09 0.13 0.15 0.14 0.18 0.13 0.14 0.13 0.19 0.24 0.36 0.36 0.26 0.35 0.26 0.46 0.45 0.47 0.44 0.41 0.41 0.42 nan nan nan
SL_Ratio
nan 3.0 3.6 nan nan nan nan nan nan nan nan nan nan nan nan nan nan nan nan nan nan nan nan nan nan nan nan nan nan nan nan nan nan nan nan nan nan nan nan nan nan nan nan nan
3.1 3.6 nan nan nan nan nan 3.1 3.3 nan nan nan nan nan nan nan nan nan nan nan nan nan nan nan nan nan nan nan nan nan nan nan nan nan nan nan nan nan nan nan nan nan nan nan
3.5 nan nan nan nan nan nan 3.3 3.1 5.0 nan nan nan 3.0 nan nan nan nan nan nan nan nan nan nan nan nan nan nan nan nan nan nan nan nan nan nan nan nan nan nan nan nan nan nan
3.3 nan nan nan 5.0 nan 4.0 nan nan 3.4 4.3 4.3 3.1 5.5 nan nan nan nan nan nan nan nan nan nan nan nan nan nan nan nan nan nan nan nan nan nan nan nan nan nan nan nan nan nan
3.2 nan 2.5 3.4 nan nan 3.9 nan nan 3.4 3.7 4.7 3.7 5.3 nan nan nan nan nan nan nan nan nan nan nan nan nan nan nan nan nan nan nan nan nan nan nan nan nan nan nan nan nan nan
3.0 nan nan nan nan nan nan 3.8 2.5 3.5 3.8 5.8 4.8 4.6 3.3 2.5 nan nan nan nan nan nan nan nan nan nan nan nan nan nan nan nan nan nan nan nan nan nan nan nan nan nan nan nan
3.1 2.9 nan nan 2.9 nan 3.1 3.9 5.0 5.2 5.4 5.0 5.7 4.6 4.0 nan nan nan nan nan nan nan nan nan nan nan nan nan nan nan nan nan nan nan nan nan nan nan nan nan nan nan nan nan
4.3 4.3 3.1 nan 3.3 3.9 3.7 4.4 5.3 6.9 6.1 5.3 6.8 8.5 3.8 nan nan nan nan nan nan nan nan nan nan nan nan nan nan nan nan nan nan nan nan nan nan nan nan nan nan nan nan nan
4.3 3.9 nan 5.0 3.3 2.5 4.1 4.5 3.3 8.0 6.4 7.8 4.9 4.9 3.6 3.4 3.4 0.0 nan nan nan nan nan nan nan nan nan nan nan nan nan nan nan nan nan nan nan nan nan nan nan nan nan nan
3.7 5.2 3.5 3.0 3.0 3.1 3.7 3.4 5.2 4.8 7.3 8.4 6.6 8.9 4.9 6.2 5.0 3.4 3.2 3.9 3.6 3.4 3.8 3.8 nan nan nan nan nan nan nan nan nan nan nan nan nan nan nan nan nan nan nan nan
3.6 4.6 4.1 3.9 4.5 4.5 4.1 4.4 4.7 4.6 4.5 7.1 8.1 6.0 4.8 5.6 5.8 5.9 5.0 4.2 5.0 4.5 4.3 4.2 4.0 3.8 nan nan nan nan nan nan nan nan nan nan nan nan nan nan nan nan nan nan
3.3 3.6 5.3 4.4 nan nan 3.6 4.3 4.1 5.4 6.9 5.4 6.7 9.6 4.3 5.5 5.8 6.0 5.6 4.5 3.9 4.4 4.0 4.0 4.2 4.2 nan nan nan nan nan nan nan nan nan nan nan nan nan nan nan 10.0 10.0 nan
2.5 3.7 5.0 4.9 5.8 3.2 4.6 3.9 4.0 5.0 4.3 8.1 6.9 8.3 5.3 5.3 6.1 5.0 5.7 4.5 4.1 4.1 4.0 3.2 3.0 3.2 3.3 3.6 3.3 5.0 nan nan nan nan nan nan nan nan nan 5.0 10.0 7.5 10.0 7.5
nan 3.4 6.0 5.7 5.9 5.1 7.4 6.9 5.1 5.6 5.8 6.0 9.6 8.1 8.0 7.1 6.8 6.1 5.9 5.5 5.1 5.0 5.0 4.1 3.9 3.7 3.7 3.8 3.9 4.1 3.3 3.2 3.8 3.1 3.3 2.9 3.0 2.5 3.3 10.0 5.0 10.0 8.3 8.0
3.9 4.9 3.7 5.7 5.4 6.3 5.5 7.4 7.4 7.5 6.7 6.6 8.6 9.5 7.9 6.6 7.0 6.5 5.8 5.5 5.7 5.6 5.2 4.8 4.7 4.3 4.5 4.4 4.2 4.1 3.8 3.8 3.8 3.8 4.2 4.0 3.0 2.9 3.8 3.8 4.1 4.5 5.4 5.6
3.3 4.1 6.5 5.6 3.9 3.7 6.0 4.5 5.9 5.5 6.6 7.2 7.5 8.8 6.7 5.7 5.8 6.9 6.6 6.4 6.6 6.2 5.6 5.4 5.1 5.2 5.8 5.3 5.0 5.1 5.0 4.6 4.0 4.8 4.9 4.1 4.3 4.2 4.2 3.3 4.3 5.1 5.9 5.5
4.1 4.6 4.9 5.2 5.7 6.2 5.8 9.3 9.1 8.4 7.9 7.3 7.7 7.0 6.1 7.4 7.2 6.9 6.8 6.8 6.9 6.4 6.5 6.4 6.5 6.8 6.6 6.1 6.0 6.3 5.9 5.3 5.1 4.9 4.7 4.9 5.1 5.3 5.4 4.6 4.6 4.0 4.5 4.1
3.9 3.8 4.5 5.0 4.8 5.8 6.2 3.8 4.9 8.3 7.9 7.8 7.3 7.2 6.3 7.0 6.4 6.4 6.3 6.9 7.1 6.9 7.0 7.0 7.1 7.8 7.5 7.1 7.5 7.3 7.3 6.9 6.5 6.1 6.6 5.8 5.6 5.6 5.0 4.9 5.4 4.9 4.6 4.6
5.0 4.5 5.4 5.1 5.6 6.3 3.8 nan nan nan 5.6 3.3 6.5 5.9 5.2 5.1 4.5 4.1 4.3 4.9 6.5 6.3 7.1 7.5 7.9 7.9 8.0 8.4 7.9 7.9 8.3 8.0 7.7 7.3 7.3 7.1 6.5 6.3 6.3 6.0 5.7 5.1 5.1 4.8
8.6 7.5 5.7 5.0 5.5 6.6 nan nan nan nan 5.0 nan nan nan nan 5.0 5.2 5.0 nan 2.5 4.0 4.4 5.0 3.3 nan 5.0 5.0 nan 5.0 8.1 9.4 9.3 9.1 8.5 7.8 7.3 7.2 6.7 7.1 6.2 6.4 5.5 5.1 5.2
5.4 5.1 5.6 5.7 5.3 5.2 5.0 6.0 6.9 6.2 5.0 nan nan 5.8 6.2 6.4 6.3 5.0 nan nan nan nan nan nan nan 5.0 5.0 nan 7.5 6.8 7.2 10.6 7.2 7.4 7.4 7.6 7.2 7.0 6.9 6.5 6.4 6.9 6.9 6.5
7.0 6.3 5.8 6.0 5.9 6.3 6.0 6.1 9.3 5.1 5.0 nan nan 5.0 5.7 5.0 5.0 nan nan nan nan nan nan nan 5.0 5.0 5.0 5.8 7.1 7.5 8.3 7.7 8.1 7.8 8.2 7.4 6.9 6.7 6.8 6.4 6.7 6.2 6.5 6.5
6.4 5.8 5.3 7.9 6.0 5.5 5.5 5.6 10.0 nan 5.8 5.8 nan nan 5.0 4.7 5.2 5.0 5.0 5.9 6.1 5.4 6.5 6.8 6.7 7.3 7.6 6.7 7.6 9.0 8.2 9.2 9.4 8.1 6.5 6.1 5.8 5.7 5.7 5.4 5.8 4.2 5.5 4.6
6.7 6.1 6.5 7.8 6.6 6.3 5.3 5.3 4.4 4.4 4.8 5.0 5.0 5.0 4.4 5.7 6.3 8.4 9.1 8.6 9.0 10.2 11.5 11.3 11.8 12.1 12.2 11.0 10.3 10.1 11.1 10.9 7.2 7.0 8.6 8.2 7.6 6.5 7.2 5.0 4.4 4.1 4.5 5.1
6.1 7.8 9.0 9.5 9.1 8.3 7.5 5.3 4.8 4.9 5.7 6.9 7.0 7.1 5.6 6.3 8.2 7.8 9.6 10.1 9.6 10.6 11.1 11.7 10.5 10.9 10.9 10.5 10.9 9.7 10.8 10.6 9.1 8.5 9.8 8.5 6.9 6.9 7.3 6.6 5.5 6.5 7.3 5.9
9.1 9.2 7.5 5.5 5.8 5.3 5.1 5.9 6.7 10.6 11.2 9.4 10.4 11.0 10.4 10.8 9.9 8.6 10.6 10.4 10.9 11.3 11.6 12.2 12.8 12.4 12.2 11.0 10.3 8.5 7.5 7.8 8.2 9.9 7.7 6.6 6.9 6.6 6.9 6.7 6.2 nan nan nan